Year,Month,Day,Hour,Minute,Value (Times are PST for temperature in C)
2023,03,27,00,00,3.80
2023,03,27,00,01,3.80
2023,03,27,00,02,3.80
2023,03,27,00,03,3.80
2023,03,27,00,04,3.70
2023,03,27,00,05,3.70
2023,03,27,00,06,3.70
2023,03,27,00,07,3.70
2023,03,27,00,08,3.60
2023,03,27,00,09,3.60
2023,03,27,00,10,3.60
2023,03,27,00,11,3.60
2023,03,27,00,12,3.60
2023,03,27,00,13,3.60
2023,03,27,00,14,3.60
2023,03,27,00,15,3.50
2023,03,27,00,16,3.50
2023,03,27,00,17,3.50
2023,03,27,00,18,3.50
2023,03,27,00,19,3.50
2023,03,27,00,20,3.50
2023,03,27,00,21,3.50
2023,03,27,00,22,3.50
2023,03,27,00,23,3.40
2023,03,27,00,24,3.40
2023,03,27,00,25,3.40
2023,03,27,00,26,3.40
2023,03,27,00,27,3.40
2023,03,27,00,28,3.40
2023,03,27,00,29,3.40
2023,03,27,00,30,3.40
2023,03,27,00,31,3.40
2023,03,27,00,32,3.40
2023,03,27,00,33,3.40
2023,03,27,00,34,3.40
2023,03,27,00,35,3.40
2023,03,27,00,36,3.40
2023,03,27,00,37,3.40
2023,03,27,00,38,3.40
2023,03,27,00,39,3.40
2023,03,27,00,40,3.40
2023,03,27,00,41,3.40
2023,03,27,00,42,3.40
2023,03,27,00,43,3.40
2023,03,27,00,44,3.40
2023,03,27,00,45,3.40
2023,03,27,00,46,3.40
2023,03,27,00,47,3.40
2023,03,27,00,48,3.40
2023,03,27,00,49,3.40
2023,03,27,00,50,3.40
2023,03,27,00,51,3.40
2023,03,27,00,52,3.40
2023,03,27,00,53,3.40
2023,03,27,00,54,3.40
2023,03,27,00,55,3.50
2023,03,27,00,56,3.50
2023,03,27,00,57,3.50
2023,03,27,00,58,3.50
2023,03,27,00,59,3.50
2023,03,27,01,00,3.50
2023,03,27,01,01,3.50
2023,03,27,01,02,3.50
2023,03,27,01,03,3.60
2023,03,27,01,04,3.60
2023,03,27,01,05,3.60
2023,03,27,01,06,3.60
2023,03,27,01,07,3.60
2023,03,27,01,08,3.70
2023,03,27,01,09,3.70
2023,03,27,01,10,3.70
2023,03,27,01,11,3.70
2023,03,27,01,12,3.70
2023,03,27,01,13,3.70
2023,03,27,01,14,3.70
2023,03,27,01,15,3.70
2023,03,27,01,16,3.70
2023,03,27,01,17,3.70
2023,03,27,01,18,3.70
2023,03,27,01,19,3.70
2023,03,27,01,20,3.70
2023,03,27,01,21,3.70
2023,03,27,01,22,3.70
2023,03,27,01,23,3.70
2023,03,27,01,24,3.70
2023,03,27,01,25,3.60
2023,03,27,01,26,3.60
2023,03,27,01,27,3.60
2023,03,27,01,28,3.60
2023,03,27,01,29,3.60
2023,03,27,01,30,3.60
2023,03,27,01,31,3.70
2023,03,27,01,32,3.70
2023,03,27,01,33,3.70
2023,03,27,01,34,3.70
2023,03,27,01,35,3.70
2023,03,27,01,36,3.70
2023,03,27,01,37,3.80
2023,03,27,01,38,3.80
2023,03,27,01,39,3.80
2023,03,27,01,40,3.80
2023,03,27,01,41,3.80
2023,03,27,01,42,3.80
2023,03,27,01,43,3.80
2023,03,27,01,44,3.80
2023,03,27,01,45,3.80
2023,03,27,01,46,3.90
2023,03,27,01,47,3.90
2023,03,27,01,48,3.90
2023,03,27,01,49,3.90
2023,03,27,01,50,3.90
2023,03,27,01,51,3.90
2023,03,27,01,52,3.90
2023,03,27,01,53,3.90
2023,03,27,01,54,3.90
2023,03,27,01,55,3.90
2023,03,27,01,56,3.90
2023,03,27,01,57,3.90
2023,03,27,01,58,3.90
2023,03,27,01,59,3.90
2023,03,27,02,00,3.90
2023,03,27,02,01,3.90
2023,03,27,02,02,3.90
2023,03,27,02,03,3.90
2023,03,27,02,04,3.90
2023,03,27,02,05,3.90
2023,03,27,02,06,3.90
2023,03,27,02,07,3.90
2023,03,27,02,08,3.90
2023,03,27,02,09,3.90
2023,03,27,02,10,3.90
2023,03,27,02,11,3.90
2023,03,27,02,12,3.90
2023,03,27,02,13,3.90
2023,03,27,02,14,3.90
2023,03,27,02,15,3.90
2023,03,27,02,16,3.90
2023,03,27,02,17,3.90
2023,03,27,02,18,3.90
2023,03,27,02,19,3.90
2023,03,27,02,20,3.80
2023,03,27,02,21,3.80
2023,03,27,02,22,3.80
2023,03,27,02,23,3.80
2023,03,27,02,24,3.80
2023,03,27,02,25,3.80
2023,03,27,02,26,3.80
2023,03,27,02,27,3.80
2023,03,27,02,28,3.80
2023,03,27,02,29,3.80
2023,03,27,02,30,3.80
2023,03,27,02,31,3.80
2023,03,27,02,32,3.80
2023,03,27,02,33,3.80
2023,03,27,02,34,3.80
2023,03,27,02,35,3.80
2023,03,27,02,36,3.80
2023,03,27,02,37,3.80
2023,03,27,02,38,3.80
2023,03,27,02,39,3.80
2023,03,27,02,40,3.80
2023,03,27,02,41,3.80
2023,03,27,02,42,3.80
2023,03,27,02,43,3.80
2023,03,27,02,44,3.80
2023,03,27,02,45,3.80
2023,03,27,02,46,3.80
2023,03,27,02,47,3.80
2023,03,27,02,48,3.80
2023,03,27,02,49,3.80
2023,03,27,02,50,3.80
2023,03,27,02,51,3.80
2023,03,27,02,52,3.80
2023,03,27,02,53,3.80
2023,03,27,02,54,3.80
2023,03,27,02,55,3.80
2023,03,27,02,56,3.80
2023,03,27,02,57,3.80
2023,03,27,02,58,3.80
2023,03,27,02,59,3.80
2023,03,27,03,00,3.80
2023,03,27,03,01,3.80
2023,03,27,03,02,3.90
2023,03,27,03,03,3.90
2023,03,27,03,04,3.90
2023,03,27,03,05,3.90
2023,03,27,03,06,3.90
2023,03,27,03,07,3.90
2023,03,27,03,08,4.00
2023,03,27,03,09,4.00
2023,03,27,03,10,4.00
2023,03,27,03,11,4.00
2023,03,27,03,12,4.00
2023,03,27,03,13,4.00
2023,03,27,03,14,4.00
2023,03,27,03,15,4.00
2023,03,27,03,16,4.00
2023,03,27,03,17,4.00
2023,03,27,03,18,4.00
2023,03,27,03,19,4.00
2023,03,27,03,20,4.00
2023,03,27,03,21,4.00
2023,03,27,03,22,4.00
2023,03,27,03,23,4.00
2023,03,27,03,24,3.90
2023,03,27,03,25,3.90
2023,03,27,03,26,3.90
2023,03,27,03,27,3.90
2023,03,27,03,28,3.90
2023,03,27,03,29,3.80
2023,03,27,03,30,3.80
2023,03,27,03,31,3.80
2023,03,27,03,32,3.80
2023,03,27,03,33,3.80
2023,03,27,03,34,3.70
2023,03,27,03,35,3.70
2023,03,27,03,36,3.70
2023,03,27,03,37,3.70
2023,03,27,03,38,3.70
2023,03,27,03,39,3.70
2023,03,27,03,40,3.70
2023,03,27,03,41,3.70
2023,03,27,03,42,3.60
2023,03,27,03,43,3.60
2023,03,27,03,44,3.60
2023,03,27,03,45,3.60
2023,03,27,03,46,3.60
2023,03,27,03,47,3.60
2023,03,27,03,48,3.50
2023,03,27,03,49,3.50
2023,03,27,03,50,3.50
2023,03,27,03,51,3.50
2023,03,27,03,52,3.50
2023,03,27,03,53,3.50
2023,03,27,03,54,3.40
2023,03,27,03,55,3.40
2023,03,27,03,56,3.40
2023,03,27,03,57,3.40
2023,03,27,03,58,3.40
2023,03,27,03,59,3.40
2023,03,27,04,00,3.40
2023,03,27,04,01,3.40
2023,03,27,04,02,3.40
2023,03,27,04,03,3.40
2023,03,27,04,04,3.40
2023,03,27,04,05,3.40
2023,03,27,04,06,3.40
2023,03,27,04,07,3.40
2023,03,27,04,08,3.40
2023,03,27,04,09,3.40
2023,03,27,04,10,3.40
2023,03,27,04,11,3.40
2023,03,27,04,12,3.40
2023,03,27,04,13,3.40
2023,03,27,04,14,3.40
2023,03,27,04,15,3.40
2023,03,27,04,16,3.40
2023,03,27,04,17,3.40
2023,03,27,04,18,3.40
2023,03,27,04,19,3.40
2023,03,27,04,20,3.40
2023,03,27,04,21,3.40
2023,03,27,04,22,3.30
2023,03,27,04,23,3.30
2023,03,27,04,24,3.30
2023,03,27,04,25,3.30
2023,03,27,04,26,3.30
2023,03,27,04,27,3.30
2023,03,27,04,28,3.30
2023,03,27,04,29,3.30
2023,03,27,04,30,3.30
2023,03,27,04,31,3.30
2023,03,27,04,32,3.30
2023,03,27,04,33,3.30
2023,03,27,04,34,3.30
2023,03,27,04,35,3.30
2023,03,27,04,36,3.30
2023,03,27,04,37,3.30
2023,03,27,04,38,3.30
2023,03,27,04,39,3.30
2023,03,27,04,40,3.30
2023,03,27,04,41,3.30
2023,03,27,04,42,3.30
2023,03,27,04,43,3.30
2023,03,27,04,44,3.30
2023,03,27,04,45,3.30
2023,03,27,04,46,3.30
2023,03,27,04,47,3.30
2023,03,27,04,48,3.30
2023,03,27,04,49,3.30
2023,03,27,04,50,3.30
2023,03,27,04,51,3.30
2023,03,27,04,52,3.30
2023,03,27,04,53,3.30
2023,03,27,04,54,3.30
2023,03,27,04,55,3.30
2023,03,27,04,56,3.30
2023,03,27,04,57,3.30
2023,03,27,04,58,3.30
2023,03,27,04,59,3.30
2023,03,27,05,00,3.30
2023,03,27,05,01,3.30
2023,03,27,05,02,3.30
2023,03,27,05,03,3.30
2023,03,27,05,04,3.30
2023,03,27,05,05,3.30
2023,03,27,05,06,3.30
2023,03,27,05,07,3.30
2023,03,27,05,08,3.30
2023,03,27,05,09,3.30
2023,03,27,05,10,3.30
2023,03,27,05,11,3.30
2023,03,27,05,12,3.30
2023,03,27,05,13,3.30
2023,03,27,05,14,3.30
2023,03,27,05,15,3.30
2023,03,27,05,16,3.30
2023,03,27,05,17,3.30
2023,03,27,05,18,3.30
2023,03,27,05,19,3.30
2023,03,27,05,20,3.30
2023,03,27,05,21,3.30
2023,03,27,05,22,3.30
2023,03,27,05,23,3.30
2023,03,27,05,24,3.30
2023,03,27,05,25,3.20
2023,03,27,05,26,3.20
2023,03,27,05,27,3.20
2023,03,27,05,28,3.20
2023,03,27,05,29,3.20
2023,03,27,05,30,3.20
2023,03,27,05,31,3.20
2023,03,27,05,32,3.20
2023,03,27,05,33,3.20
2023,03,27,05,34,3.20
2023,03,27,05,35,3.20
2023,03,27,05,36,3.20
2023,03,27,05,37,3.10
2023,03,27,05,38,3.10
2023,03,27,05,39,3.10
2023,03,27,05,40,3.10
2023,03,27,05,41,3.10
2023,03,27,05,42,3.10
2023,03,27,05,43,3.10
2023,03,27,05,44,3.10
2023,03,27,05,45,3.00
2023,03,27,05,46,3.00
2023,03,27,05,47,3.00
2023,03,27,05,48,3.00
2023,03,27,05,49,2.90
2023,03,27,05,50,2.90
2023,03,27,05,51,2.90
2023,03,27,05,52,2.90
2023,03,27,05,53,2.90
2023,03,27,05,54,2.90
2023,03,27,05,55,2.90
2023,03,27,05,56,2.80
2023,03,27,05,57,2.80
2023,03,27,05,58,2.80
2023,03,27,05,59,2.90
2023,03,27,06,00,2.90
2023,03,27,06,01,2.90
2023,03,27,06,02,2.90
2023,03,27,06,03,2.90
2023,03,27,06,04,2.90
2023,03,27,06,05,2.90
2023,03,27,06,06,2.90
2023,03,27,06,07,2.90
2023,03,27,06,08,2.90
2023,03,27,06,09,2.90
2023,03,27,06,10,2.90
2023,03,27,06,11,2.90
2023,03,27,06,12,2.90
2023,03,27,06,13,2.90
2023,03,27,06,14,2.80
2023,03,27,06,15,2.80
2023,03,27,06,16,2.80
2023,03,27,06,17,2.80
2023,03,27,06,18,2.80
2023,03,27,06,19,2.80
2023,03,27,06,20,2.80
2023,03,27,06,21,2.80
2023,03,27,06,22,2.80
2023,03,27,06,23,2.80
2023,03,27,06,24,2.80
2023,03,27,06,25,2.80
2023,03,27,06,26,2.80
2023,03,27,06,27,2.80
2023,03,27,06,28,2.80
2023,03,27,06,29,2.80
2023,03,27,06,30,2.80
2023,03,27,06,31,2.80
2023,03,27,06,32,2.80
2023,03,27,06,33,2.80
2023,03,27,06,34,2.80
2023,03,27,06,35,2.80
2023,03,27,06,36,2.80
2023,03,27,06,37,2.80
2023,03,27,06,38,2.80
2023,03,27,06,39,2.80
2023,03,27,06,40,2.80
2023,03,27,06,41,2.80
2023,03,27,06,42,2.80
2023,03,27,06,43,2.80
2023,03,27,06,44,2.80
2023,03,27,06,45,2.80
2023,03,27,06,46,2.70
2023,03,27,06,47,2.70
2023,03,27,06,48,2.70
2023,03,27,06,49,2.70
2023,03,27,06,50,2.70
2023,03,27,06,51,2.70
2023,03,27,06,52,2.70
2023,03,27,06,53,2.70
2023,03,27,06,54,2.60
2023,03,27,06,55,2.60
2023,03,27,06,56,2.60
2023,03,27,06,57,2.60
2023,03,27,06,58,2.60
2023,03,27,06,59,2.60
2023,03,27,07,00,2.60
2023,03,27,07,01,2.50
2023,03,27,07,02,2.50
2023,03,27,07,03,2.50
2023,03,27,07,04,2.50
2023,03,27,07,05,2.50
2023,03,27,07,06,2.50
2023,03,27,07,07,2.50
2023,03,27,07,08,2.40
2023,03,27,07,09,2.40
2023,03,27,07,10,2.40
2023,03,27,07,11,2.40
2023,03,27,07,12,2.40
2023,03,27,07,13,2.40
2023,03,27,07,14,2.40
2023,03,27,07,15,2.40
2023,03,27,07,16,2.40
2023,03,27,07,17,2.30
2023,03,27,07,18,2.30
2023,03,27,07,19,2.30
2023,03,27,07,20,2.30
2023,03,27,07,21,2.30
2023,03,27,07,22,2.30
2023,03,27,07,23,2.30
2023,03,27,07,24,2.20
2023,03,27,07,25,2.20
2023,03,27,07,26,2.20
2023,03,27,07,27,2.20
2023,03,27,07,28,2.20
2023,03,27,07,29,2.20
2023,03,27,07,30,2.20
2023,03,27,07,31,2.20
2023,03,27,07,32,2.20
2023,03,27,07,33,2.20
2023,03,27,07,34,2.20
2023,03,27,07,35,2.20
2023,03,27,07,36,2.20
2023,03,27,07,37,2.20
2023,03,27,07,38,2.20
2023,03,27,07,39,2.20
2023,03,27,07,40,2.20
2023,03,27,07,41,2.20
2023,03,27,07,42,2.20
2023,03,27,07,43,2.20
2023,03,27,07,44,2.20
2023,03,27,07,45,2.20
2023,03,27,07,46,2.20
2023,03,27,07,47,2.20
2023,03,27,07,48,2.20
2023,03,27,07,49,2.20
2023,03,27,07,50,2.30
2023,03,27,07,51,2.30
2023,03,27,07,52,2.30
2023,03,27,07,53,2.30
2023,03,27,07,54,2.30
2023,03,27,07,55,2.30
2023,03,27,07,56,2.30
2023,03,27,07,57,2.40
2023,03,27,07,58,2.40
2023,03,27,07,59,2.40
2023,03,27,08,00,2.40
2023,03,27,08,01,2.40
2023,03,27,08,02,2.40
2023,03,27,08,03,2.50
2023,03,27,08,04,2.50
2023,03,27,08,05,2.50
2023,03,27,08,06,2.60
2023,03,27,08,07,2.60
2023,03,27,08,08,2.60
2023,03,27,08,09,2.70
2023,03,27,08,10,2.70
2023,03,27,08,11,2.80
2023,03,27,08,12,2.80
2023,03,27,08,13,2.90
2023,03,27,08,14,2.90
2023,03,27,08,15,3.00
2023,03,27,08,16,3.00
2023,03,27,08,17,3.10
2023,03,27,08,18,3.10
2023,03,27,08,19,3.20
2023,03,27,08,20,3.20
2023,03,27,08,21,3.30
2023,03,27,08,22,3.30
2023,03,27,08,23,3.40
2023,03,27,08,24,3.40
2023,03,27,08,25,3.50
2023,03,27,08,26,3.50
2023,03,27,08,27,3.60
2023,03,27,08,28,3.60
2023,03,27,08,29,3.60
2023,03,27,08,30,3.70
2023,03,27,08,31,3.70
2023,03,27,08,32,3.70
2023,03,27,08,33,3.80
2023,03,27,08,34,3.80
2023,03,27,08,35,3.80
2023,03,27,08,36,3.90
2023,03,27,08,37,3.90
2023,03,27,08,38,3.90
2023,03,27,08,39,4.00
2023,03,27,08,40,4.00
2023,03,27,08,41,4.10
2023,03,27,08,42,4.10
2023,03,27,08,43,4.20
2023,03,27,08,44,4.20
2023,03,27,08,45,4.20
2023,03,27,08,46,4.30
2023,03,27,08,47,4.30
2023,03,27,08,48,4.30
2023,03,27,08,49,4.40
2023,03,27,08,50,4.40
2023,03,27,08,51,4.40
2023,03,27,08,52,4.50
2023,03,27,08,53,4.50
2023,03,27,08,54,4.50
2023,03,27,08,55,4.60
2023,03,27,08,56,4.60
2023,03,27,08,57,4.60
2023,03,27,08,58,4.60
2023,03,27,08,59,4.60
2023,03,27,09,00,4.70
2023,03,27,09,01,4.70
2023,03,27,09,02,4.70
2023,03,27,09,03,4.70
2023,03,27,09,04,4.80
2023,03,27,09,05,4.80
2023,03,27,09,06,4.80
2023,03,27,09,07,4.80
2023,03,27,09,08,4.90
2023,03,27,09,09,4.90
2023,03,27,09,10,5.00
2023,03,27,09,11,5.00
2023,03,27,09,12,5.10
2023,03,27,09,13,5.10
2023,03,27,09,14,5.10
2023,03,27,09,15,5.10
2023,03,27,09,16,5.20
2023,03,27,09,17,5.20
2023,03,27,09,18,5.20
2023,03,27,09,19,5.30
2023,03,27,09,20,5.30
2023,03,27,09,21,5.30
2023,03,27,09,22,5.40
2023,03,27,09,23,5.40
2023,03,27,09,24,5.50
2023,03,27,09,25,5.50
2023,03,27,09,26,5.60
2023,03,27,09,27,5.60
2023,03,27,09,28,5.60
2023,03,27,09,29,5.60
2023,03,27,09,30,5.70
2023,03,27,09,31,5.70
2023,03,27,09,32,5.70
2023,03,27,09,33,5.70
2023,03,27,09,34,5.70
2023,03,27,09,35,5.80
2023,03,27,09,36,5.80
2023,03,27,09,37,5.80
2023,03,27,09,38,5.90
2023,03,27,09,39,5.90
2023,03,27,09,40,6.00
2023,03,27,09,41,6.00
2023,03,27,09,42,6.10
2023,03,27,09,43,6.10
2023,03,27,09,44,6.10
2023,03,27,09,45,6.20
2023,03,27,09,46,6.20
2023,03,27,09,47,6.20
2023,03,27,09,48,6.20
2023,03,27,09,49,6.30
2023,03,27,09,50,6.30
2023,03,27,09,51,6.30
2023,03,27,09,52,6.30
2023,03,27,09,53,6.30
2023,03,27,09,54,6.40
2023,03,27,09,55,6.40
2023,03,27,09,56,6.50
2023,03,27,09,57,6.50
2023,03,27,09,58,6.60
2023,03,27,09,59,6.70
2023,03,27,10,00,6.70
2023,03,27,10,01,6.80
2023,03,27,10,02,6.80
2023,03,27,10,03,6.80
2023,03,27,10,04,6.80
2023,03,27,10,05,6.90
2023,03,27,10,06,6.90
2023,03,27,10,07,6.90
2023,03,27,10,08,7.00
2023,03,27,10,09,7.00
2023,03,27,10,10,7.10
2023,03,27,10,11,7.20
2023,03,27,10,12,7.20
2023,03,27,10,13,7.20
2023,03,27,10,14,7.30
2023,03,27,10,15,7.30
2023,03,27,10,16,7.30
2023,03,27,10,17,7.40
2023,03,27,10,18,7.50
2023,03,27,10,19,7.60
2023,03,27,10,20,7.60
2023,03,27,10,21,7.70
2023,03,27,10,22,7.70
2023,03,27,10,23,7.70
2023,03,27,10,24,7.70
2023,03,27,10,25,7.70
2023,03,27,10,26,7.70
2023,03,27,10,27,7.70
2023,03,27,10,28,7.70
2023,03,27,10,29,7.70
2023,03,27,10,30,7.60
2023,03,27,10,31,7.60
2023,03,27,10,32,7.70
2023,03,27,10,33,7.70
2023,03,27,10,34,7.70
2023,03,27,10,35,7.70
2023,03,27,10,36,7.70
2023,03,27,10,37,7.70
2023,03,27,10,38,7.80
2023,03,27,10,39,7.90
2023,03,27,10,40,7.90
2023,03,27,10,41,7.90
2023,03,27,10,42,7.90
2023,03,27,10,43,8.00
2023,03,27,10,44,8.10
2023,03,27,10,45,8.10
2023,03,27,10,46,8.10
2023,03,27,10,47,8.10
2023,03,27,10,48,8.10
2023,03,27,10,49,8.00
2023,03,27,10,50,8.00
2023,03,27,10,51,8.00
2023,03,27,10,52,8.00
2023,03,27,10,53,8.00
2023,03,27,10,54,8.10
2023,03,27,10,55,8.20
2023,03,27,10,56,8.30
2023,03,27,10,57,8.30
2023,03,27,10,58,8.30
2023,03,27,10,59,8.40
2023,03,27,11,00,8.40
2023,03,27,11,01,8.50
2023,03,27,11,02,8.50
2023,03,27,11,03,8.50
2023,03,27,11,04,8.50
2023,03,27,11,05,8.60
2023,03,27,11,06,8.60
2023,03,27,11,07,8.60
2023,03,27,11,08,8.60
2023,03,27,11,09,8.60
2023,03,27,11,10,8.50
2023,03,27,11,11,8.50
2023,03,27,11,12,8.50
2023,03,27,11,13,8.50
2023,03,27,11,14,8.50
2023,03,27,11,15,8.60
2023,03,27,11,16,8.60
2023,03,27,11,17,8.60
2023,03,27,11,18,8.60
2023,03,27,11,19,8.70
2023,03,27,11,20,8.70
2023,03,27,11,21,8.80
2023,03,27,11,22,8.90
2023,03,27,11,23,8.90
2023,03,27,11,24,8.90
2023,03,27,11,25,8.90
2023,03,27,11,26,8.90
2023,03,27,11,27,9.00
2023,03,27,11,28,9.10
2023,03,27,11,29,9.10
2023,03,27,11,30,9.10
2023,03,27,11,31,9.10
2023,03,27,11,32,9.10
2023,03,27,11,33,9.20
2023,03,27,11,34,9.20
2023,03,27,11,35,9.30
2023,03,27,11,36,9.30
2023,03,27,11,37,9.30
2023,03,27,11,38,9.30
2023,03,27,11,39,9.40
2023,03,27,11,40,9.50
2023,03,27,11,41,9.60
2023,03,27,11,42,9.70
2023,03,27,11,43,9.70
2023,03,27,11,44,9.70
2023,03,27,11,45,9.80
2023,03,27,11,46,9.80
2023,03,27,11,47,9.80
2023,03,27,11,48,9.70
2023,03,27,11,49,9.70
2023,03,27,11,50,9.70
2023,03,27,11,51,9.70
2023,03,27,11,52,9.70
2023,03,27,11,53,9.60
2023,03,27,11,54,9.60
2023,03,27,11,55,9.60
2023,03,27,11,56,9.60
2023,03,27,11,57,9.70
2023,03,27,11,58,9.80
2023,03,27,11,59,9.90
2023,03,27,12,00,10.00
2023,03,27,12,01,10.00
2023,03,27,12,02,10.10
2023,03,27,12,03,10.20
2023,03,27,12,04,10.30
2023,03,27,12,05,10.30
2023,03,27,12,06,10.40
2023,03,27,12,07,10.40
2023,03,27,12,08,10.40
2023,03,27,12,09,10.40
2023,03,27,12,10,10.40
2023,03,27,12,11,10.40
2023,03,27,12,12,10.40
2023,03,27,12,13,10.40
2023,03,27,12,14,10.30
2023,03,27,12,15,10.40
2023,03,27,12,16,10.40
2023,03,27,12,17,10.50
2023,03,27,12,18,10.50
2023,03,27,12,19,10.60
2023,03,27,12,20,10.70
2023,03,27,12,21,10.80
2023,03,27,12,22,10.80
2023,03,27,12,23,10.90
2023,03,27,12,24,11.00
2023,03,27,12,25,11.00
2023,03,27,12,26,11.00
2023,03,27,12,27,11.00
2023,03,27,12,28,11.10
2023,03,27,12,29,11.10
2023,03,27,12,30,11.10
2023,03,27,12,31,11.10
2023,03,27,12,32,11.20
2023,03,27,12,33,11.20
2023,03,27,12,34,11.30
2023,03,27,12,35,11.40
2023,03,27,12,36,11.50
2023,03,27,12,37,11.60
2023,03,27,12,38,11.70
2023,03,27,12,39,11.70
2023,03,27,12,40,11.80
2023,03,27,12,41,11.80
2023,03,27,12,42,11.70
2023,03,27,12,43,11.70
2023,03,27,12,44,11.70
2023,03,27,12,45,11.80
2023,03,27,12,46,11.80
2023,03,27,12,47,11.80
2023,03,27,12,48,11.70
2023,03,27,12,49,11.70
2023,03,27,12,50,11.60
2023,03,27,12,51,11.50
2023,03,27,12,52,11.40
2023,03,27,12,53,11.50
2023,03,27,12,54,11.50
2023,03,27,12,55,11.50
2023,03,27,12,56,11.50
2023,03,27,12,57,11.50
2023,03,27,12,58,11.60
2023,03,27,12,59,11.60
2023,03,27,13,00,11.70
2023,03,27,13,01,11.70
2023,03,27,13,02,11.80
2023,03,27,13,03,11.90
2023,03,27,13,04,11.90
2023,03,27,13,05,12.00
2023,03,27,13,06,12.10
2023,03,27,13,07,12.10
2023,03,27,13,08,12.20
2023,03,27,13,09,12.30
2023,03,27,13,10,12.40
2023,03,27,13,11,12.40
2023,03,27,13,12,12.40
2023,03,27,13,13,12.40
2023,03,27,13,14,12.40
2023,03,27,13,15,12.30
2023,03,27,13,16,12.30
2023,03,27,13,17,12.30
2023,03,27,13,18,12.30
2023,03,27,13,19,12.20
2023,03,27,13,20,12.20
2023,03,27,13,21,12.20
2023,03,27,13,22,12.20
2023,03,27,13,23,12.30
2023,03,27,13,24,12.40
2023,03,27,13,25,12.40
2023,03,27,13,26,12.50
2023,03,27,13,27,12.50
2023,03,27,13,28,12.50
2023,03,27,13,29,12.60
2023,03,27,13,30,12.70
2023,03,27,13,31,12.70
2023,03,27,13,32,12.80
2023,03,27,13,33,12.90
2023,03,27,13,34,13.00
2023,03,27,13,35,13.10
2023,03,27,13,36,13.10
2023,03,27,13,37,13.10
2023,03,27,13,38,13.10
2023,03,27,13,39,13.10
2023,03,27,13,40,13.00
2023,03,27,13,41,12.90
2023,03,27,13,42,12.80
2023,03,27,13,43,12.80
2023,03,27,13,44,12.80
2023,03,27,13,45,12.80
2023,03,27,13,46,12.80
2023,03,27,13,47,12.70
2023,03,27,13,48,12.80
2023,03,27,13,49,12.70
2023,03,27,13,50,12.70
2023,03,27,13,51,12.80
2023,03,27,13,52,12.80
2023,03,27,13,53,12.90
2023,03,27,13,54,13.00
2023,03,27,13,55,13.10
2023,03,27,13,56,13.20
2023,03,27,13,57,13.30
2023,03,27,13,58,13.40
2023,03,27,13,59,13.50
2023,03,27,14,00,13.50
2023,03,27,14,01,13.60
2023,03,27,14,02,13.70
2023,03,27,14,03,13.80
2023,03,27,14,04,13.90
2023,03,27,14,05,14.00
2023,03,27,14,06,14.10
2023,03,27,14,07,14.10
2023,03,27,14,08,14.10
2023,03,27,14,09,14.10
2023,03,27,14,10,14.10
2023,03,27,14,11,14.10
2023,03,27,14,12,14.00
2023,03,27,14,13,14.00
2023,03,27,14,14,14.00
2023,03,27,14,15,14.00
2023,03,27,14,16,14.00
2023,03,27,14,17,13.90
2023,03,27,14,18,13.80
2023,03,27,14,19,13.80
2023,03,27,14,20,13.80
2023,03,27,14,21,13.80
2023,03,27,14,22,13.80
2023,03,27,14,23,13.80
2023,03,27,14,24,13.90
2023,03,27,14,25,13.90
2023,03,27,14,26,14.00
2023,03,27,14,27,14.00
2023,03,27,14,28,14.10
2023,03,27,14,29,14.10
2023,03,27,14,30,14.10
2023,03,27,14,31,14.10
2023,03,27,14,32,14.10
2023,03,27,14,33,14.10
2023,03,27,14,34,14.20
2023,03,27,14,35,14.20
2023,03,27,14,36,14.30
2023,03,27,14,37,14.30
2023,03,27,14,38,14.30
2023,03,27,14,39,14.30
2023,03,27,14,40,14.30
2023,03,27,14,41,14.40
2023,03,27,14,42,14.40
2023,03,27,14,43,14.50
2023,03,27,14,44,14.50
2023,03,27,14,45,14.50
2023,03,27,14,46,14.40
2023,03,27,14,47,14.30
2023,03,27,14,48,14.30
2023,03,27,14,49,14.40
2023,03,27,14,50,14.40
2023,03,27,14,51,14.50
2023,03,27,14,52,14.60
2023,03,27,14,53,14.60
2023,03,27,14,54,14.60
2023,03,27,14,55,14.50
2023,03,27,14,56,14.50
2023,03,27,14,57,14.40
2023,03,27,14,58,14.40
2023,03,27,14,59,14.40
2023,03,27,15,00,14.40
2023,03,27,15,01,14.40
2023,03,27,15,02,14.40
2023,03,27,15,03,14.40
2023,03,27,15,04,14.50
2023,03,27,15,05,14.50
2023,03,27,15,06,14.60
2023,03,27,15,07,14.60
2023,03,27,15,08,14.70
2023,03,27,15,09,14.80
2023,03,27,15,10,14.90
2023,03,27,15,11,14.90
2023,03,27,15,12,15.00
2023,03,27,15,13,15.10
2023,03,27,15,14,15.10
2023,03,27,15,15,15.10
2023,03,27,15,16,15.10
2023,03,27,15,17,15.10
2023,03,27,15,18,15.20
2023,03,27,15,19,15.20
2023,03,27,15,20,15.20
2023,03,27,15,21,15.10
2023,03,27,15,22,15.10
2023,03,27,15,23,15.00
2023,03,27,15,24,15.00
2023,03,27,15,25,14.90
2023,03,27,15,26,14.90
2023,03,27,15,27,14.90
2023,03,27,15,28,14.80
2023,03,27,15,29,14.80
2023,03,27,15,30,14.80
2023,03,27,15,31,14.80
2023,03,27,15,32,14.80
2023,03,27,15,33,14.90
2023,03,27,15,34,14.90
2023,03,27,15,35,14.90
2023,03,27,15,36,15.00
2023,03,27,15,37,15.00
2023,03,27,15,38,15.10
2023,03,27,15,39,15.10
2023,03,27,15,40,15.20
2023,03,27,15,41,15.20
2023,03,27,15,42,15.20
2023,03,27,15,43,15.30
2023,03,27,15,44,15.30
2023,03,27,15,45,15.30
2023,03,27,15,46,15.40
2023,03,27,15,47,15.40
2023,03,27,15,48,15.40
2023,03,27,15,49,15.40
2023,03,27,15,50,15.40
2023,03,27,15,51,15.40
2023,03,27,15,52,15.40
2023,03,27,15,53,15.40
2023,03,27,15,54,15.40
2023,03,27,15,55,15.40
2023,03,27,15,56,15.40
2023,03,27,15,57,15.40
2023,03,27,15,58,15.40
2023,03,27,15,59,15.40
2023,03,27,16,00,15.40
2023,03,27,16,01,15.40
2023,03,27,16,02,15.40
2023,03,27,16,03,15.40
2023,03,27,16,04,15.40
2023,03,27,16,05,15.30
2023,03,27,16,06,15.30
2023,03,27,16,07,15.30
2023,03,27,16,08,15.30
2023,03,27,16,09,15.20
2023,03,27,16,10,15.20
2023,03,27,16,11,15.20
2023,03,27,16,12,15.20
2023,03,27,16,13,15.10
2023,03,27,16,14,15.00
2023,03,27,16,15,14.90
2023,03,27,16,16,14.80
2023,03,27,16,17,14.80
2023,03,27,16,18,14.70
2023,03,27,16,19,14.70
2023,03,27,16,20,14.70
2023,03,27,16,21,14.80
2023,03,27,16,22,14.90
2023,03,27,16,23,14.90
2023,03,27,16,24,15.00
2023,03,27,16,25,15.00
2023,03,27,16,26,15.00
2023,03,27,16,27,15.00
2023,03,27,16,28,15.10
2023,03,27,16,29,15.10
2023,03,27,16,30,15.10
2023,03,27,16,31,15.10
2023,03,27,16,32,15.10
2023,03,27,16,33,15.10
2023,03,27,16,34,15.20
2023,03,27,16,35,15.20
2023,03,27,16,36,15.20
2023,03,27,16,37,15.10
2023,03,27,16,38,15.10
2023,03,27,16,39,15.10
2023,03,27,16,40,15.10
2023,03,27,16,41,15.10
2023,03,27,16,42,15.10
2023,03,27,16,43,15.00
2023,03,27,16,44,14.90
2023,03,27,16,45,14.90
2023,03,27,16,46,14.90
2023,03,27,16,47,14.90
2023,03,27,16,48,14.90
2023,03,27,16,49,14.80
2023,03,27,16,50,14.80
2023,03,27,16,51,14.70
2023,03,27,16,52,14.70
2023,03,27,16,53,14.70
2023,03,27,16,54,14.80
2023,03,27,16,55,14.80
2023,03,27,16,56,14.80
2023,03,27,16,57,14.80
2023,03,27,16,58,14.80
2023,03,27,16,59,14.80
2023,03,27,17,00,14.80
2023,03,27,17,01,14.70
2023,03,27,17,02,14.70
2023,03,27,17,03,14.70
2023,03,27,17,04,14.70
2023,03,27,17,05,14.70
2023,03,27,17,06,14.70
2023,03,27,17,07,14.70
2023,03,27,17,08,14.70
2023,03,27,17,09,14.70
2023,03,27,17,10,14.70
2023,03,27,17,11,14.70
2023,03,27,17,12,14.80
2023,03,27,17,13,14.70
2023,03,27,17,14,14.70
2023,03,27,17,15,14.70
2023,03,27,17,16,14.70
2023,03,27,17,17,14.70
2023,03,27,17,18,14.70
2023,03,27,17,19,14.60
2023,03,27,17,20,14.60
2023,03,27,17,21,14.60
2023,03,27,17,22,14.60
2023,03,27,17,23,14.60
2023,03,27,17,24,14.60
2023,03,27,17,25,14.60
2023,03,27,17,26,14.60
2023,03,27,17,27,14.50
2023,03,27,17,28,14.50
2023,03,27,17,29,14.50
2023,03,27,17,30,14.50
2023,03,27,17,31,14.50
2023,03,27,17,32,14.50
2023,03,27,17,33,14.50
2023,03,27,17,34,14.50
2023,03,27,17,35,14.50
2023,03,27,17,36,14.50
2023,03,27,17,37,14.50
2023,03,27,17,38,14.50
2023,03,27,17,39,14.50
2023,03,27,17,40,14.50
2023,03,27,17,41,14.40
2023,03,27,17,42,14.40
2023,03,27,17,43,14.40
2023,03,27,17,44,14.40
2023,03,27,17,45,14.40
2023,03,27,17,46,14.30
2023,03,27,17,47,14.30
2023,03,27,17,48,14.20
2023,03,27,17,49,14.20
2023,03,27,17,50,14.20